Location: Unspecified
(48.7170°N, 0.0000°E)
Time: 14:51:30
(UTC+00:00)

ISS - Visible Passes

Search period start: 25 May 2019 00:00
Search period end: 04 June 2019 00:00
Orbit: 408 x 418 km, 51.6° (Epoch: 26 May)

Date Brightness Start Highest point End Pass type
(mag) Time Alt. Az. Time Alt. Az. Time Alt. Az.
25 May -2.8 21:24:55 10° WNW 21:28:11 49° N 21:31:28 10° E visible
25 May -3.9 23:01:41 10° WNW 23:05:02 84° SSW 23:05:09 81° SSE visible
26 May -2.8 20:35:22 10° W 20:38:37 49° N 20:41:55 10° ENE visible
26 May -3.6 22:12:12 10° WNW 22:15:33 73° NNE 22:17:13 27° E visible
26 May -1.5 23:49:05 10° W 23:50:01 16° W 23:50:01 16° W visible
27 May -3.2 21:22:43 10° WNW 21:26:01 59° NNE 21:29:17 10° E visible
27 May -3.0 22:59:28 10° WNW 23:02:06 39° WSW 23:02:06 39° WSW visible
28 May -3.0 20:33:10 10° WNW 20:36:28 51° N 20:39:45 10° E visible
28 May -3.8 22:09:54 10° WNW 22:13:14 66° SSW 22:14:12 41° SE visible
29 May -3.8 21:20:23 10° WNW 21:23:45 89° NNE 21:26:19 16° ESE visible
29 May -1.8 22:57:29 10° W 22:59:08 19° WSW 22:59:08 19° WSW visible
30 May -3.5 20:30:52 10° WNW 20:34:12 68° NNE 20:37:33 10° E visible
30 May -2.9 22:07:42 10° W 22:10:44 32° SW 22:11:16 30° SSW visible
31 May -3.4 21:18:03 10° WNW 21:21:18 49° SSW 21:23:27 19° SE visible
01 Jun -1.7 22:05:56 10° W 22:08:02 16° SW 22:08:27 15° SSW visible
02 Jun -2.2 21:15:55 10° W 21:18:41 24° SW 21:20:41 14° S visible
